Time,TemperatureF,DewpointF,PressureIn,WindDirection,WindDirectionDegrees,WindSpeedMPH,WindSpeedGustMPH,Humidity,HourlyPrecipIn,Conditions,Clouds,dailyrainin,SoftwareType,DateUTC
2013-01-25 00:02:00,26.0,9.0,-100.00,SE,125,10.0,14.0,47,-99.99,,,-99.99,,2013-01-25 06:02:00,
2013-01-25 00:11:00,26.0,8.0,-100.00,ESE,115,6.0,6.0,46,-99.99,,,-99.99,,2013-01-25 06:11:00,
2013-01-25 00:21:00,26.0,8.0,-100.00,ESE,115,6.0,6.0,46,-99.99,,,-99.99,,2013-01-25 06:21:00,
2013-01-25 00:42:00,26.0,8.0,-100.00,East,80,10.0,14.0,45,-99.99,,,-99.99,,2013-01-25 06:42:00,
2013-01-25 00:52:00,26.0,8.0,-100.00,ENE,70,6.0,8.0,46,-99.99,,,-99.99,,2013-01-25 06:52:00,
2013-01-25 01:02:00,26.0,8.0,-100.00,ENE,70,6.0,8.0,46,-99.99,,,-99.99,,2013-01-25 07:02:00,
2013-01-25 01:11:00,26.0,8.0,-100.00,ENE,65,6.0,6.0,46,-99.99,,,-99.99,,2013-01-25 07:11:00,
2013-01-25 01:21:00,26.0,8.0,-100.00,ENE,75,9.0,10.0,46,-99.99,,,-99.99,,2013-01-25 07:21:00,
2013-01-25 01:32:00,26.0,8.0,-100.00,ENE,75,9.0,10.0,46,-99.99,,,-99.99,,2013-01-25 07:32:00,
2013-01-25 01:42:00,26.0,8.0,-100.00,East,95,9.0,9.0,46,-99.99,,,-99.99,,2013-01-25 07:42:00,
2013-01-25 01:52:00,26.0,8.0,-100.00,East,90,10.0,10.0,47,-99.99,,,-99.99,,2013-01-25 07:52:00,
2013-01-25 02:02:00,26.0,8.0,-100.00,East,90,10.0,10.0,47,-99.99,,,-99.99,,2013-01-25 08:02:00,
2013-01-25 02:11:00,26.0,9.0,-100.00,ESE,105,10.0,14.0,48,-99.99,,,-99.99,,2013-01-25 08:11:00,
2013-01-25 02:21:00,26.0,8.0,-100.00,East,95,10.0,12.0,47,-99.99,,,-99.99,,2013-01-25 08:21:00,
2013-01-25 02:32:00,26.0,8.0,-100.00,East,95,10.0,12.0,47,-99.99,,,-99.99,,2013-01-25 08:32:00,
2013-01-25 02:41:00,26.0,9.0,-100.00,ESE,110,14.0,18.0,48,-99.99,,,-99.99,,2013-01-25 08:41:00,
2013-01-25 02:52:00,26.0,8.0,-100.00,ESE,110,12.0,16.0,47,-99.99,,,-99.99,,2013-01-25 08:52:00,
2013-01-25 03:02:00,26.0,8.0,-100.00,ESE,110,12.0,16.0,47,-99.99,,,-99.99,,2013-01-25 09:02:00,
2013-01-25 03:11:00,26.0,8.0,-100.00,ESE,115,9.0,10.0,47,-99.99,,,-99.99,,2013-01-25 09:11:00,
2013-01-25 03:21:00,26.0,9.0,-100.00,ESE,105,14.0,16.0,48,-99.99,,,-99.99,,2013-01-25 09:21:00,
2013-01-25 03:31:00,26.0,9.0,-100.00,ESE,105,14.0,16.0,48,-99.99,,,-99.99,,2013-01-25 09:31:00,
2013-01-25 03:42:00,26.0,9.0,-100.00,ESE,105,9.0,10.0,48,-99.99,,,-99.99,,2013-01-25 09:42:00,
2013-01-25 03:52:00,26.0,8.0,-100.00,ESE,110,10.0,10.0,47,-99.99,,,-99.99,,2013-01-25 09:52:00,
2013-01-25 04:02:00,26.0,8.0,-100.00,ESE,110,10.0,10.0,47,-99.99,,,-99.99,,2013-01-25 10:02:00,
2013-01-25 04:12:00,26.0,8.0,-100.00,East,100,4.0,6.0,47,-99.99,,,-99.99,,2013-01-25 10:12:00,
2013-01-25 04:21:00,26.0,8.0,-100.00,ESE,110,6.0,8.0,47,-99.99,,,-99.99,,2013-01-25 10:21:00,
2013-01-25 04:32:00,26.0,8.0,-100.00,ESE,110,6.0,8.0,47,-99.99,,,-99.99,,2013-01-25 10:32:00,
2013-01-25 04:42:00,26.0,8.0,-100.00,ESE,120,2.0,3.0,47,-99.99,,,-99.99,,2013-01-25 10:42:00,
2013-01-25 04:52:00,26.0,8.0,-100.00,East,100,3.0,3.0,47,-99.99,,,-99.99,,2013-01-25 10:52:00,
2013-01-25 05:02:00,26.0,8.0,-100.00,East,100,3.0,3.0,47,-99.99,,,-99.99,,2013-01-25 11:02:00,
2013-01-25 05:11:00,26.0,9.0,-100.00,ENE,65,0.0,1.0,47,-99.99,,,-99.99,,2013-01-25 11:11:00,
2013-01-25 05:22:00,26.0,9.0,-100.00,SE,140,6.0,6.0,48,-99.99,,,-99.99,,2013-01-25 11:22:00,
2013-01-25 05:32:00,26.0,9.0,-100.00,SE,140,6.0,6.0,48,-99.99,,,-99.99,,2013-01-25 11:32:00,
2013-01-25 05:42:00,26.0,9.0,-100.00,SE,125,0.0,2.0,48,-99.99,,,-99.99,,2013-01-25 11:42:00,
2013-01-25 05:52:00,26.0,8.0,-100.00,ESE,120,2.0,3.0,46,-99.99,,,-99.99,,2013-01-25 11:52:00,
2013-01-25 06:02:00,26.0,8.0,-100.00,ESE,120,2.0,3.0,46,-99.99,,,-99.99,,2013-01-25 12:02:00,
2013-01-25 06:11:00,26.0,9.0,-100.00,NW,325,0.0,1.0,47,-99.99,,,-99.99,,2013-01-25 12:11:00,
2013-01-25 06:22:00,26.0,9.0,-100.00,ESE,115,0.0,0.0,47,-99.99,,,-99.99,,2013-01-25 12:22:00,
2013-01-25 06:32:00,26.0,9.0,-100.00,ESE,115,0.0,0.0,47,-99.99,,,-99.99,,2013-01-25 12:32:00,
2013-01-25 06:42:00,26.0,8.0,-100.00,ESE,115,0.0,0.0,47,-99.99,,,-99.99,,2013-01-25 12:42:00,
2013-01-25 06:53:00,26.0,9.0,-100.00,SE,145,0.0,0.0,48,-99.99,,,-99.99,,2013-01-25 12:53:00,
2013-01-25 07:02:00,26.0,9.0,-100.00,SE,145,0.0,0.0,48,-99.99,,,-99.99,,2013-01-25 13:02:00,
2013-01-25 07:11:00,26.0,9.0,-100.00,ESE,115,0.0,0.0,48,-99.99,,,-99.99,,2013-01-25 13:11:00,
2013-01-25 07:22:00,26.0,9.0,-100.00,SE,130,0.0,1.0,49,-99.99,,,-99.99,,2013-01-25 13:22:00,
2013-01-25 07:32:00,26.0,9.0,-100.00,SE,130,0.0,1.0,49,-99.99,,,-99.99,,2013-01-25 13:32:00,
2013-01-25 07:42:00,26.0,9.0,-100.00,SSE,155,0.0,1.0,48,-99.99,,,-99.99,,2013-01-25 13:42:00,
2013-01-25 07:53:00,26.0,9.0,-100.00,ESE,120,0.0,0.0,48,-99.99,,,-99.99,,2013-01-25 13:53:00,
2013-01-25 08:03:00,26.0,9.0,-100.00,ESE,120,0.0,0.0,48,-99.99,,,-99.99,,2013-01-25 14:03:00,
2013-01-25 08:12:00,26.0,10.0,-100.00,NW,325,1.0,2.0,49,-99.99,,,-99.99,,2013-01-25 14:12:00,
2013-01-25 08:23:00,26.0,10.0,-100.00,NNW,345,1.0,2.0,50,-99.99,,,-99.99,,2013-01-25 14:23:00,
2013-01-25 08:32:00,26.0,10.0,-100.00,NNW,345,1.0,2.0,50,-99.99,,,-99.99,,2013-01-25 14:32:00,
2013-01-25 08:42:00,27.0,10.0,-100.00,NNW,335,2.0,3.0,49,-99.99,,,-99.99,,2013-01-25 14:42:00,
2013-01-25 08:53:00,27.0,10.0,-100.00,NW,315,1.0,2.0,49,-99.99,,,-99.99,,2013-01-25 14:53:00,
2013-01-25 09:02:00,27.0,10.0,-100.00,NW,315,1.0,2.0,49,-99.99,,,-99.99,,2013-01-25 15:02:00,
2013-01-25 09:12:00,28.0,11.0,-100.00,NW,310,1.0,3.0,48,-99.99,,,-99.99,,2013-01-25 15:12:00,
2013-01-25 09:22:00,28.0,10.0,-100.00,WNW,300,0.0,1.0,47,-99.99,,,-99.99,,2013-01-25 15:22:00,
2013-01-25 09:32:00,28.0,10.0,-100.00,WNW,300,0.0,1.0,47,-99.99,,,-99.99,,2013-01-25 15:32:00,
2013-01-25 09:42:00,28.0,11.0,-100.00,WSW,255,1.0,1.0,47,-99.99,,,-99.99,,2013-01-25 15:42:00,
2013-01-25 09:53:00,29.0,11.0,-100.00,WNW,290,2.0,3.0,47,-99.99,,,-99.99,,2013-01-25 15:53:00,
2013-01-25 10:03:00,29.0,11.0,-100.00,WNW,290,2.0,3.0,47,-99.99,,,-99.99,,2013-01-25 16:03:00,
2013-01-25 10:12:00,29.0,11.0,-100.00,WSW,245,3.0,4.0,46,-99.99,,,-99.99,,2013-01-25 16:12:00,
2013-01-25 10:22:00,30.0,12.0,-100.00,WSW,255,1.0,3.0,46,-99.99,,,-99.99,,2013-01-25 16:22:00,
2013-01-25 10:32:00,30.0,12.0,-100.00,WSW,255,1.0,3.0,46,-99.99,,,-99.99,,2013-01-25 16:32:00,
2013-01-25 10:43:00,31.0,12.0,-100.00,SSW,205,3.0,6.0,46,-99.99,,,-99.99,,2013-01-25 16:43:00,
2013-01-25 10:53:00,32.0,13.0,-100.00,WSW,240,8.0,9.0,45,-99.99,,,-99.99,,2013-01-25 16:53:00,
2013-01-25 11:02:00,32.0,13.0,-100.00,WSW,240,8.0,9.0,45,-99.99,,,-99.99,,2013-01-25 17:02:00,
2013-01-25 11:12:00,32.0,13.0,-100.00,WSW,255,10.0,12.0,46,-99.99,,,-99.99,,2013-01-25 17:12:00,
2013-01-25 11:22:00,33.0,14.0,-100.00,West,265,6.0,9.0,46,-99.99,,,-99.99,,2013-01-25 17:22:00,
2013-01-25 11:32:00,33.0,14.0,-100.00,West,265,6.0,9.0,46,-99.99,,,-99.99,,2013-01-25 17:32:00,
2013-01-25 11:43:00,34.0,15.0,-100.00,NW,310,6.0,10.0,45,-99.99,,,-99.99,,2013-01-25 17:43:00,
2013-01-25 11:53:00,34.0,15.0,-100.00,West,270,8.0,11.0,45,-99.99,,,-99.99,,2013-01-25 17:53:00,
2013-01-25 12:03:00,35.0,15.0,-100.00,WNW,295,6.0,9.0,45,-99.99,,,-99.99,,2013-01-25 18:03:00,
2013-01-25 12:12:00,35.0,15.0,-100.00,WNW,295,6.0,9.0,45,-99.99,,,-99.99,,2013-01-25 18:12:00,
2013-01-25 12:23:00,34.0,15.0,-100.00,WNW,290,9.0,14.0,45,-99.99,,,-99.99,,2013-01-25 18:23:00,
2013-01-25 12:33:00,34.0,15.0,-100.00,WNW,290,9.0,14.0,45,-99.99,,,-99.99,,2013-01-25 18:33:00,
2013-01-25 12:42:00,36.0,17.0,-100.00,WNW,290,4.0,8.0,45,-99.99,,,-99.99,,2013-01-25 18:42:00,
2013-01-25 12:52:00,36.0,16.0,-100.00,West,270,6.0,10.0,45,-99.99,,,-99.99,,2013-01-25 18:52:00,
2013-01-25 13:03:00,37.0,17.0,-100.00,West,260,10.0,14.0,44,-99.99,,,-99.99,,2013-01-25 19:03:00,
2013-01-25 13:12:00,37.0,17.0,-100.00,West,260,10.0,14.0,44,-99.99,,,-99.99,,2013-01-25 19:12:00,
2013-01-25 13:22:00,38.0,18.0,-100.00,SW,230,4.0,6.0,43,-99.99,,,-99.99,,2013-01-25 19:22:00,
2013-01-25 13:32:00,38.0,18.0,-100.00,SW,230,4.0,6.0,43,-99.99,,,-99.99,,2013-01-25 19:32:00,
2013-01-25 13:42:00,38.0,18.0,-100.00,WSW,255,6.0,9.0,43,-99.99,,,-99.99,,2013-01-25 19:42:00,
2013-01-25 13:53:00,38.0,19.0,-100.00,WNW,290,10.0,18.0,45,-99.99,,,-99.99,,2013-01-25 19:53:00,
2013-01-25 14:03:00,38.0,19.0,-100.00,WNW,290,10.0,18.0,45,-99.99,,,-99.99,,2013-01-25 20:03:00,
2013-01-25 14:12:00,39.0,19.0,-100.00,SSW,195,4.0,9.0,44,-99.99,,,-99.99,,2013-01-25 20:12:00,
2013-01-25 14:22:00,40.0,20.0,-100.00,WSW,245,10.0,14.0,44,-99.99,,,-99.99,,2013-01-25 20:22:00,
2013-01-25 14:32:00,40.0,20.0,-100.00,WSW,245,10.0,14.0,44,-99.99,,,-99.99,,2013-01-25 20:32:00,
2013-01-25 14:42:00,40.0,20.0,-100.00,SW,235,4.0,6.0,44,-99.99,,,-99.99,,2013-01-25 20:42:00,
2013-01-25 14:53:00,40.0,20.0,-100.00,SW,230,9.0,10.0,45,-99.99,,,-99.99,,2013-01-25 20:53:00,
2013-01-25 15:02:00,40.0,20.0,-100.00,SW,230,9.0,10.0,45,-99.99,,,-99.99,,2013-01-25 21:02:00,
2013-01-25 15:12:00,40.0,20.0,-100.00,WSW,240,6.0,10.0,44,-99.99,,,-99.99,,2013-01-25 21:12:00,
2013-01-25 15:23:00,41.0,20.0,-100.00,WSW,250,8.0,11.0,44,-99.99,,,-99.99,,2013-01-25 21:23:00,
2013-01-25 15:33:00,41.0,20.0,-100.00,WSW,250,8.0,11.0,44,-99.99,,,-99.99,,2013-01-25 21:33:00,
2013-01-25 15:42:00,41.0,21.0,-100.00,WSW,245,6.0,9.0,44,-99.99,,,-99.99,,2013-01-25 21:42:00,
2013-01-25 15:52:00,40.0,20.0,-100.00,SW,230,9.0,12.0,44,-99.99,,,-99.99,,2013-01-25 21:52:00,
2013-01-25 16:03:00,40.0,20.0,-100.00,SW,230,9.0,12.0,44,-99.99,,,-99.99,,2013-01-25 22:03:00,
2013-01-25 16:12:00,40.0,20.0,-100.00,West,260,6.0,10.0,44,-99.99,,,-99.99,,2013-01-25 22:12:00,
2013-01-25 16:22:00,40.0,20.0,-100.00,WSW,245,6.0,9.0,44,-99.99,,,-99.99,,2013-01-25 22:22:00,
2013-01-25 16:33:00,40.0,20.0,-100.00,WSW,245,6.0,9.0,44,-99.99,,,-99.99,,2013-01-25 22:33:00,
2013-01-25 16:42:00,39.0,20.0,-100.00,SW,225,11.0,14.0,45,-99.99,,,-99.99,,2013-01-25 22:42:00,
2013-01-25 16:53:00,39.0,20.0,-100.00,SW,235,6.0,11.0,46,-99.99,,,-99.99,,2013-01-25 22:53:00,
2013-01-25 17:02:00,39.0,20.0,-100.00,SW,235,6.0,11.0,46,-99.99,,,-99.99,,2013-01-25 23:02:00,
2013-01-25 17:12:00,38.0,19.0,-100.00,WSW,240,4.0,10.0,46,-99.99,,,-99.99,,2013-01-25 23:12:00,
2013-01-25 17:22:00,38.0,19.0,-100.00,WSW,255,6.0,9.0,47,-99.99,,,-99.99,,2013-01-25 23:22:00,
2013-01-25 17:32:00,38.0,19.0,-100.00,WSW,255,6.0,9.0,47,-99.99,,,-99.99,,2013-01-25 23:32:00,
2013-01-25 17:42:00,37.0,19.0,-100.00,WSW,255,6.0,9.0,48,-99.99,,,-99.99,,2013-01-25 23:42:00,
2013-01-25 17:53:00,36.0,19.0,-100.00,WSW,245,6.0,9.0,49,-99.99,,,-99.99,,2013-01-25 23:53:00,
2013-01-25 18:02:00,36.0,19.0,-100.00,WSW,245,6.0,9.0,49,-99.99,,,-99.99,,2013-01-26 00:02:00,
2013-01-25 18:11:00,36.0,19.0,-100.00,WSW,240,3.0,4.0,50,-99.99,,,-99.99,,2013-01-26 00:11:00,
2013-01-25 18:22:00,35.0,19.0,-100.00,WSW,245,4.0,6.0,51,-99.99,,,-99.99,,2013-01-26 00:22:00,
2013-01-25 18:32:00,35.0,19.0,-100.00,WSW,245,4.0,6.0,51,-99.99,,,-99.99,,2013-01-26 00:32:00,
2013-01-25 18:42:00,35.0,19.0,-100.00,WSW,245,4.0,6.0,51,-99.99,,,-99.99,,2013-01-26 00:42:00,
2013-01-25 18:53:00,35.0,20.0,-100.00,SW,235,2.0,3.0,53,-99.99,,,-99.99,,2013-01-26 00:53:00,
2013-01-25 19:02:00,35.0,20.0,-100.00,SW,235,2.0,3.0,53,-99.99,,,-99.99,,2013-01-26 01:02:00,
2013-01-25 19:11:00,35.0,19.0,-100.00,SW,225,2.0,4.0,53,-99.99,,,-99.99,,2013-01-26 01:11:00,
2013-01-25 19:22:00,35.0,19.0,-100.00,SW,235,3.0,4.0,53,-99.99,,,-99.99,,2013-01-26 01:22:00,
2013-01-25 19:32:00,35.0,19.0,-100.00,SW,235,3.0,4.0,53,-99.99,,,-99.99,,2013-01-26 01:32:00,
2013-01-25 19:42:00,34.0,20.0,-100.00,SW,225,3.0,6.0,54,-99.99,,,-99.99,,2013-01-26 01:42:00,
2013-01-25 19:52:00,34.0,19.0,-100.00,SW,230,3.0,4.0,54,-99.99,,,-99.99,,2013-01-26 01:52:00,
2013-01-25 20:01:00,34.0,19.0,-100.00,SW,230,3.0,4.0,54,-99.99,,,-99.99,,2013-01-26 02:01:00,
2013-01-25 20:11:00,34.0,19.0,-100.00,SW,235,4.0,6.0,54,-99.99,,,-99.99,,2013-01-26 02:11:00,
2013-01-25 20:22:00,34.0,19.0,-100.00,WSW,250,3.0,4.0,55,-99.99,,,-99.99,,2013-01-26 02:22:00,
2013-01-25 20:32:00,34.0,19.0,-100.00,WSW,250,3.0,4.0,55,-99.99,,,-99.99,,2013-01-26 02:32:00,
2013-01-25 20:42:00,34.0,19.0,-100.00,SW,235,3.0,6.0,55,-99.99,,,-99.99,,2013-01-26 02:42:00,
2013-01-25 20:52:00,34.0,19.0,-100.00,WSW,250,3.0,4.0,55,-99.99,,,-99.99,,2013-01-26 02:52:00,
2013-01-25 21:02:00,34.0,19.0,-100.00,WSW,250,3.0,4.0,55,-99.99,,,-99.99,,2013-01-26 03:02:00,
2013-01-25 21:11:00,33.0,19.0,-100.00,WSW,240,1.0,3.0,56,-99.99,,,-99.99,,2013-01-26 03:11:00,
2013-01-25 21:22:00,33.0,19.0,-100.00,WSW,250,3.0,4.0,56,-99.99,,,-99.99,,2013-01-26 03:22:00,
2013-01-25 21:31:00,33.0,19.0,-100.00,WSW,250,3.0,4.0,56,-99.99,,,-99.99,,2013-01-26 03:31:00,
2013-01-25 21:43:00,33.0,19.0,-100.00,WSW,255,6.0,6.0,57,-99.99,,,-99.99,,2013-01-26 03:43:00,
2013-01-25 21:52:00,33.0,19.0,-100.00,WSW,255,6.0,9.0,57,-99.99,,,-99.99,,2013-01-26 03:52:00,
2013-01-25 22:02:00,33.0,19.0,-100.00,WSW,255,6.0,9.0,57,-99.99,,,-99.99,,2013-01-26 04:02:00,
2013-01-25 22:12:00,33.0,19.0,-100.00,WSW,250,6.0,8.0,56,-99.99,,,-99.99,,2013-01-26 04:12:00,
2013-01-25 22:21:00,34.0,20.0,-100.00,WSW,250,6.0,9.0,56,-99.99,,,-99.99,,2013-01-26 04:21:00,
2013-01-25 22:32:00,34.0,20.0,-100.00,West,260,6.0,9.0,56,-99.99,,,-99.99,,2013-01-26 04:32:00,
2013-01-25 22:42:00,34.0,20.0,-100.00,West,260,6.0,9.0,56,-99.99,,,-99.99,,2013-01-26 04:42:00,
2013-01-25 22:52:00,34.0,20.0,-100.00,West,265,6.0,10.0,56,-99.99,,,-99.99,,2013-01-26 04:52:00,
2013-01-25 23:03:00,34.0,20.0,-100.00,West,265,6.0,10.0,56,-99.99,,,-99.99,,2013-01-26 05:03:00,
2013-01-25 23:12:00,34.0,20.0,-100.00,WSW,250,6.0,6.0,56,-99.99,,,-99.99,,2013-01-26 05:12:00,
2013-01-25 23:23:00,33.0,19.0,-100.00,West,260,6.0,9.0,56,-99.99,,,-99.99,,2013-01-26 05:23:00,
2013-01-25 23:30:00,33.0,19.0,-100.00,West,275,4.0,6.0,55,-99.99,,,-99.99,,2013-01-26 05:30:00,
2013-01-25 23:33:00,33.0,19.0,-100.00,West,260,6.0,9.0,56,-99.99,,,-99.99,,2013-01-26 05:33:00,
2013-01-25 23:41:00,33.0,19.0,-100.00,West,270,4.0,4.0,56,-99.99,,,-99.99,,2013-01-26 05:41:00,
2013-01-25 23:52:00,33.0,19.0,-100.00,West,270,4.0,8.0,55,-99.99,,,-99.99,,2013-01-26 05:52:00,